Weather History for KTWM - April, 2014

Change the Weather History Date:

Tuesday, April 22, 2014

  Actual Average Record
Temperature  
Mean Temperature 40 °F -  
Max Temperature 51 °F 51 °F 80 °F (1980)
Min Temperature 28 °F 33 °F 21 °F (1986)
Degree Days  
Heating Degree Days 26    
Moisture  
Dew Point 24 °F    
Average Humidity 53    
Maximum Humidity 80    
Minimum Humidity 33    
Precipitation  
Precipitation 0.00 in - - ()
Sea Level Pressure  
Sea Level Pressure 30.04 in    
Wind  
Wind Speed 6 mph (NNW)    
Max Wind Speed 12 mph    
Max Gust Speed 21 mph    
Visibility 10 miles    
Events      
Averages and records for this station are not official NWS values.
T = Trace of Precipitation, MM = Missing Value Source: NWS Daily Summary

Daily Weather History Graph

Daily Weather History Graph

Search for Another Location

Airport or City:

Trip Planner

Search our weather history database for the weather conditions in past years. The results will help you decide how hot, cold, wet, or windy it might be!

Date:

Astronomy

Apr. 22, 2014 Rise Set
Actual Time 6:06 AM CDT 8:05 PM CDT
Civil Twilight 5:33 AM CDT 8:38 PM CDT
Nautical Twilight 4:53 AM CDT 9:18 PM CDT
Astronomical Twilight 4:08 AM CDT 10:03 PM CDT
Moon 2:22 AM CDT (4/22) 12:40 PM CDT (4/22)
Length of Visible Light 15h 04m
Length of Day
13h 59m
Last Quarter, 46% of the Moon is Illuminated
Apr 22
Last Quarter
Apr 29
New
May 6
First Quarter
May 14
Full
May 21
Last Quarter

Hourly Weather History & Observations

Time (CDT) Temp. Windchill Dew Point Humidity Pressure Visibility Wind Dir Wind Speed Gust Speed Precip Events Conditions
12:13 AM 37.4 °F 32.8 °F 24.8 °F 60% 30.01 in 10.0 mi WNW 5.8 mph - N/A   Overcast
12:33 AM 37.4 °F 33.8 °F 24.8 °F 60% 30.01 in 10.0 mi WNW 4.6 mph - N/A   Overcast
12:53 AM 37.4 °F 34.9 °F 24.8 °F 60% 30.01 in 10.0 mi NW 3.5 mph - N/A   Overcast
1:13 AM 37.4 °F 33.8 °F 24.8 °F 60% 30.01 in 10.0 mi NW 4.6 mph - N/A   Overcast
1:33 AM 37.4 °F 32.1 °F 24.8 °F 60% 30.01 in 10.0 mi NW 6.9 mph - N/A   Overcast
1:53 AM 37.4 °F 32.1 °F 24.8 °F 60% 30.01 in 10.0 mi NW 6.9 mph - N/A   Overcast
2:13 AM 37.4 °F 32.1 °F 24.8 °F 60% 30.00 in 10.0 mi NW 6.9 mph 17.3 mph N/A   Mostly Cloudy
2:33 AM 35.6 °F 29.2 °F 24.8 °F 65% 30.00 in 10.0 mi NW 8.1 mph - N/A   Clear
2:53 AM 35.6 °F 28.0 °F 24.8 °F 65% 29.99 in 10.0 mi NW 10.4 mph 20.7 mph N/A   Clear
3:13 AM 35.6 °F 27.5 °F 24.8 °F 65% 29.99 in 10.0 mi NW 11.5 mph 20.7 mph N/A   Clear
3:33 AM 35.6 °F 28.6 °F 24.8 °F 65% 29.99 in 10.0 mi NW 9.2 mph - N/A   Clear
3:53 AM 35.6 °F 31.7 °F 24.8 °F 65% 29.99 in 10.0 mi NNW 4.6 mph - N/A   Clear
4:13 AM 35.6 °F 30.7 °F 24.8 °F 65% 30.01 in 10.0 mi WNW 5.8 mph - N/A   Clear
4:33 AM 35.6 °F 31.7 °F 24.8 °F 65% 30.01 in 10.0 mi NW 4.6 mph - N/A   Clear
4:53 AM 35.6 °F 29.2 °F 23.0 °F 60% 30.02 in 10.0 mi NNW 8.1 mph - N/A   Clear
5:13 AM 35.6 °F 28.6 °F 21.2 °F 56% 30.02 in 10.0 mi NNW 9.2 mph - N/A   Clear
5:33 AM 33.8 °F 27.7 °F 21.2 °F 60% 30.02 in 10.0 mi NNW 6.9 mph - N/A   Clear
5:53 AM 35.6 °F 28.0 °F 21.2 °F 56% 30.02 in 10.0 mi NNW 10.4 mph 18.4 mph N/A   Clear
6:13 AM 33.8 °F 28.6 °F 21.2 °F 60% 30.03 in 10.0 mi NNW 5.8 mph - N/A   Clear
6:33 AM 33.8 °F 28.6 °F 21.2 °F 60% 30.04 in 10.0 mi North 5.8 mph - N/A   Clear
6:53 AM 35.6 °F 31.7 °F 21.2 °F 56% 30.04 in 10.0 mi NNW 4.6 mph - N/A   Clear
7:13 AM 35.6 °F 32.8 °F 21.2 °F 56% 30.05 in 10.0 mi NW 3.5 mph - N/A   Clear
7:33 AM 35.6 °F 30.7 °F 21.2 °F 56% 30.05 in 10.0 mi WNW 5.8 mph - N/A   Clear
7:53 AM 35.6 °F 29.9 °F 21.2 °F 56% 30.06 in 10.0 mi NNW 6.9 mph - N/A   Clear
8:13 AM 37.4 °F 33.8 °F 24.8 °F 60% 30.06 in 10.0 mi NW 4.6 mph - N/A   Clear
8:33 AM 37.4 °F 30.3 °F 23.0 °F 56% 30.06 in 10.0 mi NW 10.4 mph - N/A   Clear
8:53 AM 37.4 °F 32.1 °F 24.8 °F 60% 30.06 in 10.0 mi NNW 6.9 mph - N/A   Clear
9:13 AM 39.2 °F 33.6 °F 24.8 °F 56% 30.06 in 10.0 mi NNW 8.1 mph - N/A   Clear
9:33 AM 41.0 °F 37.1 °F 24.8 °F 53% 30.06 in 10.0 mi NNW 5.8 mph - N/A   Clear
9:53 AM 41.0 °F 34.3 °F 24.8 °F 53% 30.06 in 10.0 mi NNW 11.5 mph 17.3 mph N/A   Clear
10:13 AM 42.8 °F 38.6 °F 24.8 °F 49% 30.07 in 10.0 mi NNW 6.9 mph 17.3 mph N/A   Mostly Cloudy
10:33 AM 42.8 °F 37.0 °F 24.8 °F 49% 30.06 in 10.0 mi North 10.4 mph 18.4 mph N/A   Scattered Clouds
10:53 AM 44.6 °F 38.8 °F 24.8 °F 46% 30.07 in 10.0 mi North 11.5 mph 17.3 mph N/A   Scattered Clouds
11:13 AM 42.8 °F 39.3 °F 24.8 °F 49% 30.07 in 10.0 mi NW 5.8 mph 17.3 mph N/A   Scattered Clouds
11:33 AM 44.6 °F 42.2 °F 24.8 °F 46% 30.08 in 10.0 mi NNW 4.6 mph - N/A   Scattered Clouds
11:53 AM 44.6 °F 42.2 °F 24.8 °F 46% 30.07 in 10.0 mi North 4.6 mph - N/A   Mostly Cloudy
12:13 PM 46.4 °F 42.9 °F 24.8 °F 43% 30.07 in 10.0 mi North 6.9 mph - N/A   Scattered Clouds
12:33 PM 46.4 °F 42.9 °F 24.8 °F 43% 30.07 in 10.0 mi North 6.9 mph - N/A   Clear
12:53 PM 46.4 °F 42.4 °F 24.8 °F 43% 30.06 in 10.0 mi North 8.1 mph - N/A   Clear
1:13 PM 48.2 °F - 24.8 °F 40% 30.06 in 10.0 mi NNW 8.1 mph 16.1 mph N/A   Clear
1:33 PM 48.2 °F - 26.6 °F 43% 30.05 in 10.0 mi North 5.8 mph - N/A   Clear
1:53 PM 48.2 °F - 24.8 °F 40% 30.05 in 10.0 mi North 3.5 mph - N/A   Clear
2:13 PM 48.2 °F - 24.8 °F 40% 30.06 in 10.0 mi North 6.9 mph - N/A   Clear
2:33 PM 48.2 °F - 24.8 °F 40% 30.05 in 10.0 mi NW 6.9 mph - N/A   Clear
2:53 PM 50.0 °F - 24.8 °F 37% 30.05 in 10.0 mi NNW 8.1 mph 17.3 mph N/A   Clear
3:13 PM 50.0 °F - 24.8 °F 37% 30.05 in 10.0 mi North 6.9 mph - N/A   Clear
3:33 PM 51.8 °F - 24.8 °F 35% 30.04 in 10.0 mi NNW 3.5 mph - N/A   Clear
3:53 PM 51.8 °F - 24.8 °F 35% 30.04 in 10.0 mi North 5.8 mph - N/A   Clear
4:13 PM 51.8 °F - 24.8 °F 35% 30.04 in 10.0 mi NNE 3.5 mph - N/A   Clear
4:33 PM 51.8 °F - 24.8 °F 35% 30.04 in 10.0 mi WNW 10.4 mph - N/A   Clear
4:53 PM 51.8 °F - 24.8 °F 35% 30.04 in 10.0 mi NW 5.8 mph - N/A   Clear
5:13 PM 51.8 °F - 23.0 °F 33% 30.04 in 10.0 mi WNW 9.2 mph - N/A   Clear
5:33 PM 51.8 °F - 23.0 °F 33% 30.04 in 10.0 mi North 6.9 mph - N/A   Clear
5:53 PM 51.8 °F - 23.0 °F 33% 30.04 in 10.0 mi North 4.6 mph - N/A   Clear
6:13 PM 51.8 °F - 26.6 °F 38% 30.04 in 10.0 mi ESE 4.6 mph - N/A   Clear
6:33 PM 48.2 °F - 24.8 °F 40% 30.04 in 10.0 mi East 4.6 mph - N/A   Clear
6:53 PM 48.2 °F - 24.8 °F 40% 30.03 in 10.0 mi SE 4.6 mph - N/A   Clear
7:13 PM 46.4 °F 44.3 °F 24.8 °F 43% 30.04 in 10.0 mi SSE 4.6 mph - N/A   Clear
7:33 PM 44.6 °F - 24.8 °F 46% 30.04 in 10.0 mi Calm Calm - N/A   Clear
7:53 PM 42.8 °F - 21.2 °F 42% 30.04 in 10.0 mi Calm Calm - N/A   Clear
8:13 PM 41.0 °F 39.0 °F 21.2 °F 45% 30.05 in 10.0 mi East 3.5 mph - N/A   Clear
8:33 PM 39.2 °F - 21.2 °F 49% 30.05 in 10.0 mi Calm Calm - N/A   Clear
8:53 PM 35.6 °F - 21.2 °F 56% 30.05 in 10.0 mi Calm Calm - N/A   Clear
9:13 PM 33.8 °F - 24.8 °F 70% 30.06 in 10.0 mi Calm Calm - N/A   Clear
9:33 PM 32.0 °F - 24.8 °F 75% 30.07 in 10.0 mi Calm Calm - N/A   Clear
9:53 PM 30.2 °F - 24.8 °F 80% 30.07 in 10.0 mi Calm Calm - N/A   Clear
10:13 PM 30.2 °F - 23.0 °F 75% 30.07 in 10.0 mi Calm Calm - N/A   Clear
10:53 PM 28.4 °F 23.3 °F 21.2 °F 74% 30.08 in 10.0 mi North 4.6 mph - N/A   Clear
11:14 PM 28.4 °F - 21.2 °F 74% 30.08 in 10.0 mi Calm Calm - N/A   Clear
11:33 PM 28.4 °F - 21.2 °F 74% 30.08 in 10.0 mi Calm Calm - N/A   Clear
11:53 PM 28.4 °F - 21.2 °F 74% 30.09 in 10.0 mi Calm Calm - N/A   Clear